User: anonymous   Login
Location: Stull Observatory
(42.2506°N, 77.7903°W)
Time: 00:31:48
(UTC-04:00)
Language:

Abrixas rocket - Orbit

View from above orbital plane
View from above orbital plane
View from above satellite
View from above satellite

Ground track
Ground track

The orbit data is extracted from the following two-line orbital elements,

1 25723U 99022C   16237.44993453  .00005535  00000-0  10618-3 0  9998
2 25723  48.4182 304.4358 0010843  40.4370  32.0087 15.49453235960410
Epoch (UTC): 24 August 2016 10:47:54
Eccentricity: 0.0010843
inclination: 48.4182°
perigee height: 411 km
apogee height: 426 km
right ascension of ascending node: 304.4358°
argument of perigee: 40.4370°
revolutions per day: 15.49453235
mean anomaly at epoch: 32.0087°
orbit number at epoch: 96041

The dashed part of the orbit path shows where the satellite is in the earth's shadow,  

DLR